Tracking 28790 objects as of 19-Apr-2024
HD Live streaming from Space Station
objects crossing your sky now

HAWK-2C

Track HAWK-2C now!
10-day predictions


NORAD ID: 47502
Int'l Code: 2021-006CT
Perigee: 509.1 km
Apogee: 525.1 km
Inclination: 97.3 °
Period: 94.8 minutes
Semi major axis: 6888 km
RCS: Unknown
Launch date: January 24, 2021
Source: United States (US)
Launch site: AIR FORCE EASTERN TEST RANGE (AFETR)
Your satellite tracking list
Your tracking list is empty




NASA's NSSDC Master Catalog

Two Line Element Set (TLE):
1 47502U 21006CT  24109.86806289  .00011543  00000-0  55923-3 0  9991
2 47502  97.3391 161.5170 0011598 122.6437 237.5918 15.18636478179014
Source of the keplerian elements: AFSPC